Temperature
17 16 16 15 15 15 15 14 14 14 14 14 14 13 13 13 13 13 13 13 13 13 13 12 13 13 13 13 13 13 13 14 14 13 13 12 12 12 12 12 12 12 12
18 16 16 15 15 15 14 14 14 14 14 13 13 13 13 12 12 12 12 12 12 12 12 12 12 12 12 13 13 13 13 14 13 13 13 12 12 11 12 12 11 11 11
17 16 16 15 15 14 14 14 14 14 13 13 13 12 12 12 12 12 12 12 12 12 12 12 12 12 12 12 13 13 13 13 13 13 12 11 11 11 10 11 11 11 11
17 16 15 15 15 14 14 14 14 13 13 13 12 12 12 11 11 11 11 11 11 11 11 11 11 11 12 12 12 13 13 13 13 12 11 11 10 10 10 10 10 10 10
16 15 15 15 14 14 14 14 14 13 13 12 12 12 11 11 11 11 11 11 11 11 11 11 11 11 11 12 12 12 12 12 12 11 10 10 10 10 10 9 9 10 10
16 15 15 15 14 14 14 14 13 13 12 12 12 11 11 11 11 11 11 10 10 10 10 10 11 11 11 11 11 12 12 12 11 10 10 10 10 10 10 9 9 9 10
15 15 15 15 14 14 14 14 13 13 12 12 11 11 11 11 11 11 10 10 10 10 10 10 10 10 10 10 11 11 11 11 10 10 9 9 9 9 9 9 9 9 10
15 15 14 14 14 14 14 13 13 12 12 12 11 11 10 10 10 10 10 10 10 10 10 10 10 10 10 10 10 10 10 10 10 9 9 9 9 9 9 9 9 9 9
15 14 14 14 14 14 13 13 13 12 12 11 11 11 11 10 10 10 10 10 10 10 10 10 10 10 10 10 10 10 10 10 9 9 9 9 9 9 8 8 8 8 8
15 14 14 14 13 13 13 13 12 12 12 11 11 11 11 10 10 10 10 10 10 10 10 10 10 10 10 10 10 10 10 9 9 9 8 8 9 8 8 8 8 8 8
15 14 14 13 13 13 13 12 12 12 12 11 11 11 10 10 10 10 10 10 10 10 10 10 10 10 10 10 10 10 9 9 8 8 8 8 8 8 8 8 8 8 7
15 15 14 14 13 13 12 12 12 11 11 11 10 10 10 10 9 9 10 10 10 10 10 10 10 10 9 9 9 9 9 9 8 8 8 9 8 8 7 7 7 7 7
16 15 15 14 14 13 13 12 12 11 11 11 10 10 10 10 10 9 9 9 9 10 9 10 9 9 9 9 9 9 9 9 8 8 8 8 8 8 7 7 7 7 7
16 16 15 15 14 14 13 12 12 12 11 11 11 10 10 10 10 10 9 9 9 9 9 9 9 9 9 9 9 9 9 9 8 8 8 8 8 8 7 7 7 6 6
17 16 16 15 15 14 13 13 12 12 12 11 11 11 10 10 10 10 9 9 9 9 9 9 9 9 9 9 9 9 9 9 8 8 8 8 8 8 7 7 7 6 6
18 17 16 16 15 14 14 13 13 12 12 11 11 11 11 10 10 10 9 9 9 9 9 9 9 9 9 9 9 9 9 9 9 8 8 8 8 8 8 7 7 6 6
18 17 17 16 15 15 14 14 13 13 12 12 12 11 11 10 10 10 10 9 9 9 9 9 9 9 9 9 9 9 9 9 9 9 8 8 8 8 8 8 7 7 6
18 17 17 17 16 15 15 14 14 13 13 12 12 11 11 11 10 10 10 9 9 9 9 9 9 9 9 9 9 9 9 9 9 9 9 8 8 8 8 8 7 7 7
18 18 17 17 17 16 15 14 14 13 13 12 12 11 11 11 10 10 10 9 9 9 9 9 9 9 8 9 9 9 9 9 9 9 8 8 8 8 8 8 7 7 7
18 17 17 17 16 16 15 14 13 13 13 12 12 12 11 11 10 10 10 9 9 9 9 9 9 9 9 9 9 9 9 9 9 9 8 8 8 8 8 7 7 7 7
17 17 17 17 16 15 15 14 14 13 13 13 12 12 12 11 11 10 10 10 9 9 9 9 8 9 9 9 8 8 9 9 9 9 8 8 8 8 7 7 7 7 7
18 18 17 17 16 16 16 16 15 14 13 13 13 12 12 11 11 10 10 10 10 9 9 9 9 9 8 8 8 8 8 8 9 9 8 8 8 7 7 7 7 7 6
18 18 18 18 17 17 16 15 14 12 12 12 12 12 12 11 11 11 10 10 10 9 9 9 9 9 8 8 8 8 8 9 8 8 8 8 8 7 7 7 7 6 6
19 19 18 18 17 17 16 15 14 13 13 14 14 13 13 12 11 11 10 10 10 10 9 9 9 9 8 8 8 8 8 8 7 7 7 8 7 7 7 6 6 6 6
19 19 19 18 17 16 16 15 15 14 14 14 13 13 12 12 11 11 10 10 10 10 9 9 9 9 9 8 8 8 8 8 8 7 7 7 7 7 7 6 6 6 5
19 19 19 18 17 16 16 15 15 15 14 13 13 13 12 12 11 11 11 10 10 10 9 9 9 9 9 8 8 8 8 8 7 7 6 6 6 6 6 6 6 5 5
Wind_Speed
14 19 21 20 19 18 17 16 15 15 14 14 14 14 14 14 15 15 15 15 15 16 16 16 16 17 17 18 18 17 17 18 18 18 18 18 17 17 17 16 14 15 17
19 22 23 22 20 19 18 17 16 15 14 14 14 14 14 14 14 15 15 15 15 15 15 15 16 16 16 17 17 16 17 17 16 15 14 15 16 16 16 16 15 13 15
20 22 23 22 21 20 19 18 17 15 15 14 14 14 14 14 14 14 14 14 14 14 15 15 15 15 15 16 16 16 16 15 14 12 10 12 13 15 14 14 14 13 13
21 21 22 22 22 21 19 18 17 16 15 15 14 14 13 13 13 13 13 13 14 14 14 14 14 14 14 14 14 14 14 14 13 9 10 11 11 13 12 12 12 12 12
20 20 22 23 22 21 20 19 17 16 15 15 14 14 13 13 13 13 13 13 13 13 13 13 13 13 13 13 13 13 12 12 9 9 10 10 10 11 11 11 11 11 11
19 20 22 23 22 21 20 19 18 17 16 15 14 14 13 13 13 13 12 12 12 12 12 12 12 12 12 12 12 12 11 9 6 9 8 9 9 10 10 10 10 10 11
19 19 22 22 22 21 20 19 18 17 16 15 14 14 13 13 13 12 12 11 11 11 11 11 11 11 10 11 11 10 10 7 7 8 7 8 9 10 10 10 10 11 11
18 18 21 22 22 21 21 20 18 17 16 16 14 14 13 13 12 12 11 10 10 10 10 10 10 10 10 10 10 9 8 5 6 6 6 7 9 9 9 10 10 10 11
17 16 18 21 21 20 20 20 18 17 16 15 14 13 13 12 12 11 10 9 9 9 9 9 9 9 9 9 8 8 7 4 5 6 5 6 8 8 9 9 10 10 11
16 16 17 19 19 19 19 19 18 17 16 15 14 14 13 12 11 10 10 9 8 8 8 8 8 9 8 8 7 7 4 0 5 5 5 7 7 8 9 9 9 10 11
16 15 15 16 17 17 18 19 18 17 16 16 14 14 12 11 10 9 8 8 7 7 7 7 8 8 6 7 6 4 0 3 4 4 5 7 7 7 8 8 9 9 10
20 18 16 16 16 16 15 17 15 15 15 14 13 14 11 9 8 8 9 7 7 7 7 7 7 5 2 4 5 1 2 3 3 4 6 7 6 6 7 8 8 8 9
21 19 17 16 16 16 13 14 12 12 13 13 13 13 10 9 8 8 8 8 7 6 5 5 4 3 2 3 2 2 3 3 3 3 5 7 6 6 7 7 7 8 8
20 20 19 17 16 16 15 13 12 11 11 11 12 13 11 8 8 7 6 6 6 5 4 3 2 3 2 2 2 2 2 2 3 3 6 7 6 6 6 6 7 7 8
20 21 20 19 18 16 14 12 12 12 12 12 12 13 11 9 8 7 6 6 6 5 4 3 2 2 1 1 1 1 1 2 2 2 3 6 7 6 6 6 7 7 7
21 21 20 20 19 17 14 13 12 12 12 13 12 13 13 10 9 8 7 6 6 5 4 3 2 1 1 1 1 1 1 1 1 1 2 4 7 6 6 6 6 6 7
21 21 21 21 20 19 17 15 12 13 13 12 12 14 14 12 10 9 7 6 6 6 5 3 3 2 1 1 0 0 0 0 0 1 1 1 3 5 6 6 5 6 6
19 20 21 18 20 20 17 15 12 13 13 13 13 14 15 14 12 10 7 7 7 7 5 4 3 3 2 1 1 0 1 1 1 1 1 1 1 1 4 5 5 5 6
20 21 21 21 21 20 18 15 13 13 13 13 13 13 15 15 14 12 8 8 9 7 6 4 4 3 2 2 1 1 1 1 1 2 2 2 2 1 1 2 3 4 5
20 20 21 21 21 20 16 13 12 12 12 13 13 14 16 16 16 13 10 10 10 7 6 6 5 4 3 2 1 2 2 2 3 3 3 3 3 2 2 2 2 1 3
20 21 22 22 21 18 16 15 15 14 13 12 13 16 17 17 17 14 10 10 9 8 8 8 6 5 4 3 2 2 3 3 3 3 3 4 4 3 3 3 3 4 3
21 22 23 23 23 22 18 17 15 14 12 12 12 14 18 18 17 15 13 10 10 9 9 9 8 5 4 4 3 3 3 3 4 4 4 4 4 4 5 5 5 5 5
21 23 22 24 24 24 21 15 12 11 10 11 13 13 16 18 18 17 16 13 11 10 9 10 10 9 6 5 5 4 3 3 1 4 5 5 5 5 5 5 6 6 6
21 21 22 23 24 24 22 19 20 16 15 17 14 14 15 18 18 17 16 15 12 10 10 10 10 8 7 6 5 4 5 3 3 3 4 6 6 6 7 5 7 7 7
18 18 20 22 23 23 23 22 21 19 16 14 14 15 15 15 16 17 16 14 13 11 11 11 10 10 8 7 5 4 5 4 6 5 6 5 5 6 6 7 7 7 7
14 16 17 20 22 22 23 23 23 22 19 17 17 15 14 12 13 16 15 14 13 11 12 11 11 11 9 9 7 6 5 4 5 6 7 7 7 5 6 6 7 7 8
Wind_Direction
163 161 160 157 152 148 143 137 130 123 119 115 111 106 102 99 94 91 88 85 82 79 78 77 78 77 74 72 71 69 67 66 64 61 61 61 61 58 54 48 46 52 48
156 159 159 157 154 150 145 138 130 126 124 120 116 112 108 102 97 93 89 87 85 83 81 79 78 77 75 73 71 70 68 66 64 62 63 66 61 58 54 50 47 48 46
153 157 159 158 155 150 145 140 134 130 128 124 121 117 113 107 101 96 93 90 88 86 83 81 78 77 75 74 72 71 68 65 62 60 62 63 62 57 54 50 48 45 43
154 156 158 156 155 151 147 142 138 135 132 128 125 121 117 112 107 102 99 95 92 88 86 83 81 79 77 75 74 72 69 65 59 53 60 57 57 53 50 46 43 41 38
154 157 153 155 155 153 149 145 142 139 137 133 129 125 121 116 112 108 104 100 95 92 89 86 84 81 80 78 76 74 70 65 60 62 61 56 53 46 44 41 35 33 31
156 157 154 157 156 154 151 149 146 144 142 138 133 129 125 120 115 111 108 105 101 97 94 91 88 85 82 81 78 75 70 59 63 62 57 49 45 38 39 37 31 28 26
158 158 157 160 158 156 154 152 150 148 145 141 137 134 129 125 121 117 114 110 106 101 98 94 90 87 84 83 80 75 69 53 58 60 52 47 36 27 33 33 29 26 24
159 159 159 161 159 158 158 156 154 151 148 145 142 139 135 131 127 124 119 113 109 104 100 97 93 89 86 84 80 75 67 44 63 56 50 46 30 23 33 31 25 23 23
162 163 163 164 163 162 161 159 158 154 151 148 145 142 137 136 135 131 125 120 115 109 103 98 94 89 84 83 80 77 72 38 52 54 46 39 22 21 30 30 29 29 29
168 170 168 168 167 167 166 162 159 157 155 152 147 142 140 143 141 135 134 125 118 112 106 101 96 90 83 80 80 82 79 12 55 54 42 38 16 21 32 34 34 31 31
177 178 174 171 171 171 168 162 162 160 158 155 151 145 151 156 150 148 129 125 122 117 109 102 97 93 94 92 83 87 131 50 57 42 40 27 14 24 32 37 35 32 31
182 183 179 177 174 173 168 168 171 169 167 171 166 164 168 161 155 147 129 126 122 119 114 101 103 116 131 102 104 151 65 53 45 48 43 22 15 21 32 38 36 32 32
183 183 183 180 178 176 173 174 174 173 173 178 173 172 170 164 160 162 159 155 152 154 142 129 146 110 84 70 59 60 48 39 43 47 47 24 15 22 34 38 37 33 36
185 186 186 183 182 182 179 178 177 177 178 178 178 178 175 173 175 172 174 166 167 164 153 158 140 123 102 86 66 63 65 47 38 36 45 29 21 24 32 39 36 37 36
189 189 189 187 186 185 184 183 184 184 182 182 180 184 183 180 181 179 179 176 177 169 171 172 168 141 127 93 72 48 45 40 33 39 62 50 36 32 37 37 32 36 33
193 192 190 190 189 187 188 187 188 188 185 185 185 188 188 187 184 185 183 183 183 182 178 182 172 167 149 126 81 46 25 42 37 45 68 79 59 43 42 36 32 32 26
195 192 191 192 191 191 192 191 191 191 188 189 188 190 192 192 189 189 188 187 188 185 184 188 176 192 175 187 207 38 14 351 210 102 98 75 91 72 56 44 32 26 18
196 193 191 191 194 194 194 193 192 193 192 193 191 192 194 194 193 193 193 194 189 188 193 195 201 203 203 221 248 241 232 218 233 194 167 154 129 111 83 54 34 24 12
198 194 192 193 195 195 195 194 194 193 196 196 195 194 195 196 196 197 199 195 190 194 199 197 209 217 218 226 253 257 247 229 218 209 191 174 162 173 161 82 51 28 8
201 196 194 194 196 194 193 194 194 196 199 201 200 199 196 198 198 200 200 198 192 195 200 202 203 208 221 224 230 241 238 230 223 214 205 198 195 198 228 253 270 333 355
201 199 196 195 195 192 191 193 195 198 198 200 203 203 200 200 199 201 201 198 196 202 204 205 204 202 207 207 229 246 226 218 222 212 217 218 210 217 236 252 270 280 286
202 200 199 198 195 194 195 196 198 197 199 200 200 205 204 204 201 201 204 199 198 202 204 202 201 206 201 206 233 256 250 217 208 215 221 227 229 226 239 253 263 268 280
203 202 200 199 197 196 195 193 191 191 193 197 201 203 205 205 204 203 205 203 201 202 204 203 202 207 209 205 225 241 255 263 248 207 221 227 231 238 247 253 258 262 269
205 202 202 200 198 196 193 192 189 192 197 201 200 200 202 204 205 205 205 204 202 203 206 204 204 210 211 211 207 231 252 275 258 260 222 227 236 247 253 254 257 257 259
204 200 200 199 198 195 194 195 195 200 203 199 197 198 199 202 205 204 203 202 202 204 208 203 201 207 210 215 207 203 219 233 245 254 268 256 244 243 248 255 255 255 255
199 197 196 197 197 195 194 196 199 201 200 195 194 195 196 198 201 203 202 203 203 204 205 203 201 206 210 214 211 208 209 216 225 235 257 269 270 262 252 252 252 251 252
Height
1517 1521 1524 1527 1529 1532 1533 1535 1536 1537 1538 1538 1539 1539 1539 1540 1540 1540 1540 1540 1540 1540 1541 1541 1540 1540 1540 1539 1539 1539 1539 1538 1538 1538 1537 1537 1536 1536 1535 1534 1535 1534 1532
1516 1520 1523 1526 1529 1531 1533 1535 1536 1537 1538 1539 1539 1539 1540 1541 1541 1541 1541 1541 1541 1541 1541 1541 1541 1541 1541 1540 1540 1540 1540 1540 1539 1539 1539 1539 1538 1537 1536 1535 1535 1534 1533
1516 1519 1522 1526 1529 1531 1533 1535 1536 1537 1538 1539 1540 1540 1541 1541 1542 1542 1542 1542 1542 1542 1542 1542 1542 1542 1542 1541 1541 1541 1541 1541 1541 1540 1541 1541 1540 1538 1537 1536 1536 1535 1534
1516 1519 1523 1525 1529 1531 1533 1535 1536 1538 1539 1540 1540 1541 1542 1542 1542 1543 1543 1543 1543 1543 1543 1543 1543 1543 1543 1542 1542 1542 1542 1542 1542 1542 1543 1542 1542 1540 1539 1538 1537 1536 1535
1516 1520 1522 1525 1528 1531 1533 1535 1536 1538 1539 1540 1541 1542 1542 1543 1543 1543 1544 1544 1544 1544 1544 1544 1544 1544 1544 1544 1543 1543 1543 1543 1543 1544 1543 1543 1543 1541 1540 1539 1538 1537 1536
1516 1520 1523 1526 1529 1531 1533 1535 1537 1538 1539 1540 1541 1542 1543 1543 1544 1544 1545 1545 1545 1545 1545 1545 1545 1545 1545 1545 1545 1544 1544 1544 1545 1545 1544 1544 1544 1542 1541 1540 1539 1538 1537
1517 1520 1523 1526 1529 1531 1533 1535 1537 1538 1540 1541 1542 1543 1544 1544 1545 1545 1545 1546 1546 1547 1547 1547 1547 1547 1546 1546 1546 1546 1545 1545 1546 1545 1545 1545 1544 1543 1542 1541 1540 1539 1538
1517 1520 1523 1526 1529 1531 1533 1535 1537 1539 1540 1541 1542 1543 1544 1545 1545 1546 1546 1547 1547 1548 1548 1548 1548 1548 1548 1547 1547 1547 1546 1546 1547 1546 1546 1546 1544 1544 1543 1541 1540 1539 1538
1517 1521 1524 1526 1529 1531 1533 1535 1537 1539 1540 1541 1543 1544 1544 1545 1546 1547 1547 1548 1548 1549 1549 1549 1549 1549 1549 1548 1548 1548 1547 1547 1548 1547 1547 1546 1545 1544 1543 1542 1541 1540 1538
1517 1520 1523 1526 1528 1531 1533 1535 1537 1539 1540 1541 1543 1544 1545 1546 1546 1547 1548 1548 1549 1549 1550 1550 1550 1550 1549 1549 1549 1548 1548 1548 1548 1548 1547 1546 1545 1545 1544 1543 1541 1540 1539
1515 1519 1522 1525 1528 1531 1533 1534 1537 1538 1540 1541 1542 1543 1545 1547 1548 1548 1548 1549 1549 1550 1550 1550 1550 1550 1550 1550 1549 1549 1549 1550 1549 1548 1547 1546 1546 1545 1544 1543 1541 1540 1539
1512 1516 1519 1523 1526 1529 1532 1534 1536 1538 1539 1541 1542 1543 1545 1547 1548 1548 1548 1549 1550 1550 1551 1551 1551 1551 1551 1551 1550 1550 1550 1550 1550 1549 1547 1546 1546 1545 1545 1543 1542 1541 1539
1509 1513 1517 1520 1524 1527 1529 1532 1535 1537 1538 1540 1542 1543 1545 1546 1547 1548 1549 1550 1550 1551 1551 1551 1552 1552 1552 1551 1551 1551 1550 1550 1550 1549 1548 1546 1546 1545 1545 1543 1542 1541 1540
1507 1510 1514 1517 1521 1524 1527 1530 1532 1534 1536 1538 1540 1542 1543 1545 1546 1547 1549 1550 1550 1551 1551 1552 1552 1552 1551 1551 1551 1551 1550 1550 1550 1549 1547 1546 1545 1545 1544 1543 1542 1541 1540
1505 1508 1511 1514 1518 1521 1524 1527 1530 1532 1534 1537 1538 1540 1542 1544 1545 1546 1548 1549 1550 1551 1551 1551 1552 1552 1552 1551 1551 1550 1550 1549 1549 1548 1547 1546 1545 1544 1544 1543 1542 1541 1540
1501 1504 1508 1511 1515 1518 1521 1524 1527 1530 1532 1535 1536 1538 1540 1542 1544 1545 1547 1548 1549 1550 1550 1551 1551 1551 1551 1551 1550 1550 1549 1549 1548 1548 1547 1546 1545 1544 1543 1542 1541 1540 1539
1497 1501 1504 1508 1511 1515 1518 1521 1524 1527 1530 1532 1534 1536 1538 1540 1542 1543 1545 1546 1547 1548 1549 1550 1550 1550 1550 1550 1550 1549 1549 1548 1547 1547 1546 1545 1544 1543 1542 1541 1540 1539 1538
1494 1497 1500 1504 1507 1511 1514 1518 1521 1524 1527 1529 1532 1534 1536 1538 1540 1542 1543 1545 1546 1547 1548 1548 1549 1549 1549 1549 1549 1548 1548 1547 1546 1546 1545 1544 1543 1543 1541 1540 1539 1538 1536
1488 1492 1496 1499 1503 1507 1511 1514 1517 1520 1523 1526 1529 1531 1533 1535 1537 1539 1541 1543 1544 1545 1546 1547 1547 1548 1548 1548 1548 1547 1547 1546 1545 1544 1544 1543 1542 1541 1540 1539 1537 1536 1535
1483 1487 1490 1494 1498 1503 1506 1510 1513 1516 1519 1522 1524 1527 1530 1532 1534 1537 1539 1540 1542 1543 1544 1545 1545 1546 1546 1546 1546 1546 1545 1544 1544 1543 1542 1541 1541 1540 1539 1537 1536 1534 1532
1477 1480 1484 1488 1492 1496 1500 1503 1506 1510 1513 1517 1520 1523 1526 1529 1531 1533 1535 1537 1539 1540 1542 1543 1544 1544 1544 1545 1545 1544 1543 1542 1542 1541 1540 1540 1539 1538 1536 1535 1534 1532 1530
1469 1473 1477 1481 1485 1489 1493 1497 1501 1505 1509 1512 1516 1519 1522 1525 1527 1530 1532 1534 1536 1538 1539 1540 1541 1542 1542 1543 1543 1543 1543 1543 1539 1539 1538 1537 1537 1535 1534 1533 1531 1529 1527
1462 1465 1469 1474 1478 1482 1487 1492 1496 1501 1504 1507 1510 1513 1517 1520 1523 1526 1528 1531 1533 1534 1535 1537 1538 1539 1540 1540 1541 1542 1542 1540 1539 1537 1536 1535 1534 1533 1531 1530 1528 1526 1524
1454 1458 1463 1467 1471 1475 1480 1484 1488 1491 1495 1499 1504 1508 1512 1515 1518 1521 1524 1527 1529 1530 1532 1533 1535 1536 1537 1537 1538 1538 1538 1538 1537 1536 1534 1532 1531 1530 1528 1526 1524 1522 1520
1447 1451 1455 1460 1464 1468 1473 1477 1481 1486 1491 1495 1499 1503 1507 1510 1513 1517 1520 1522 1524 1526 1528 1530 1531 1532 1533 1534 1534 1534 1534 1534 1533 1533 1531 1530 1528 1526 1524 1523 1521 1518 1516
1439 1443 1448 1452 1456 1461 1466 1470 1475 1480 1485 1489 1493 1497 1501 1504 1508 1511 1514 1517 1520 1522 1524 1526 1527 1528 1529 1530 1530 1530 1530 1530 1530 1529 1528 1526 1525 1523 1520 1518 1516 1514 1512